[[{"header":{"parameterUnit":"m.s-1","parameterCategory":1,"la1":30.2991,"la2":30.254,"lo1":-89.0895,"lo2":-89.0444,"dy":0.0017,"dx":0.0017,"nx":28,"ny":28,"refTime":"2025-04-23T03:00:00:Z","depth":0,"parameterNumber":2,"parameterNumberName":"U-component_of_WINDS"},"data":[0,0,0,0,0,0,0,0,0,0,0,0,0,0,0,0,0,0,0,0,0,0,0,0,0,0,0,0,0,0,0,0,0,0,0,0,0,0,0,0,0,0,0,0,0,0,0,0,0,0,0,0,0,0,0,0,0,0,-4.7203,-4.7203,0,-4.7185,-4.7185,-4.7185,-4.707,-4.7067,-4.7064,-4.7061,-4.7044,-4.7046,-4.7048,0,0,0,0,0,0,0,0,0,0,0,0,0,-4.7139,-4.7141,-4.7203,-4.7203,-4.7203,-4.7185,-4.7185,-4.7185,-4.707,-4.7067,-4.7063,-4.706,-4.7043,-4.7046,-4.7048,0,0,0,0,0,0,0,0,0,0,0,0,0,-4.7149,-4.7142,-4.7203,-4.7143,-4.7138,-4.7185,-4.7185,-4.7185,-4.7071,-4.7067,-4.7062,-4.7059,-4.7042,-4.7045,-4.7049,-4.7152,0,0,-4.7058,-4.706,0,0,0,0,0,0,0,0,-4.7149,-4.7151,-4.7152,-4.7147,-4.7141,-4.7125,-4.7156,-4.7174,-4.7072,-4.7096,-4.7061,-4.7056,-4.7074,-4.7075,-4.708,-4.7151,-4.7151,-4.7059,-4.7061,-4.7062,-4.7063,0,0,0,0,0,0,0,-4.7148,-4.7152,-4.7196,-4.7152,-4.7146,-4.7118,-4.7115,-4.7159,-4.7109,-4.7094,-4.7085,-4.7085,-4.7071,-4.7078,-4.7079,-4.715,-4.7058,-4.7061,-4.7063,-4.7065,-4.7306,-4.731,0,0,0,0,0,0,-4.7156,-4.7152,-4.7196,-4.7195,-4.7135,-4.7123,-4.7119,-4.7135,-4.7108,-4.71,-4.7088,-4.708,-4.7074,-4.7076,-4.7078,-4.7197,-4.7062,-4.7065,-4.7067,-4.7302,-4.7307,-4.7312,0,0,0,0,0,0,-4.7155,-4.7161,-4.7197,-4.7171,-4.7174,-4.7128,-4.7147,-4.7137,-4.7143,-4.7104,-4.7095,-4.7105,-4.7071,-4.7074,-4.7135,-4.7195,-4.7066,-4.7069,-4.7296,-4.7303,-4.7309,-4.7437,0,0,0,0,0,0,-4.7153,-4.7161,-4.7199,-4.7173,-4.7176,-4.7254,-4.7151,-4.7139,-4.7149,-4.7137,-4.7117,-4.711,-4.7068,-4.7131,-4.7138,-4.7197,-4.7072,-4.7291,-4.7299,-4.7307,-4.7427,-4.7447,-4.7464,0,0,0,0,0,-4.7151,-4.7236,-4.7202,-4.7208,-4.7222,-4.7257,-4.7259,-4.7209,-4.7155,-4.7193,-4.7168,-4.711,-4.7188,-4.7138,-4.7145,-4.7206,-4.7286,-4.7297,-4.7307,-4.7418,-4.7443,-4.7464,0,0,0,0,0,0,-4.727,-4.7231,-4.7193,-4.7271,-4.7269,-4.7238,-4.7284,-4.7237,-4.7249,-4.7237,-4.7176,-4.7172,-4.7242,-4.7231,-4.7175,-4.7306,-4.7227,-4.724,-4.731,-4.7333,-4.7351,-4.7352,-4.7074,0,0,0,0,0,-4.7305,-4.7337,-4.7301,-4.7374,-4.7375,-4.7331,-4.7344,-4.7306,-4.73,-4.7299,-4.7278,-4.7275,-4.7299,-4.7316,-4.7335,-4.7426,-4.7419,-4.7472,-4.749,-4.7506,-4.7516,-4.7563,-4.7586,-4.7345,-4.7345,-4.7345,0,0,-4.7378,-4.7361,-4.7384,-4.7397,-4.739,-4.7425,-4.733,-4.737,-4.7394,-4.7305,-4.736,-4.7346,-4.7339,-4.7415,-4.7448,-4.7407,-4.7582,-4.7519,-4.7531,-4.7533,-4.7576,-4.7599,-4.7619,-4.7352,-4.7351,-4.735,0,0,-4.7528,-4.7519,-4.7578,-4.7574,-4.7565,-4.7536,-4.7551,-4.7528,-4.7514,-4.757,-4.7503,-4.7533,-4.7575,-4.7572,-4.7577,-4.773,-4.7677,-4.7738,-4.7834,-4.7881,-4.79,-4.7916,-4.797,-4.799,-4.7749,-4.7749,-4.775,0,-4.7619,-4.7667,-4.7614,-4.7659,-4.7667,-4.7588,-4.7648,-4.7647,-4.7646,-4.7653,-4.7608,-4.766,-4.765,-4.7725,-4.7762,-4.7769,-4.7783,-4.7738,-4.7901,-4.7917,-4.7932,-4.7982,-4.8003,-4.7757,-4.7756,-4.7755,-4.7754,0,-4.778,-4.7815,-4.7864,-4.7865,-4.7879,-4.7931,-4.7886,-4.7907,-4.7869,-4.7845,-4.7903,-4.7888,-4.7904,-4.7919,-4.7883,-4.799,-4.7965,-4.7912,-4.7832,-4.7963,-4.8009,-4.8028,-4.7767,-4.7765,-4.7762,-4.7761,0,0,-4.8,-4.7973,-4.7992,-4.7992,-4.7978,-4.8004,-4.8054,-4.8069,-4.8088,-4.8091,-4.813,-4.8169,-4.8121,-4.8126,-4.8089,-4.813,-4.8251,-4.8072,-4.8071,-4.8104,-4.8367,-4.8405,-4.8428,-4.8217,-4.8221,-4.8224,-4.8367,0,-4.8143,-4.8225,-4.818,-4.8268,-4.8299,-4.8227,-4.827,-4.8267,-4.8247,-4.8271,-4.8248,-4.8276,-4.8211,-4.8213,-4.8251,-4.8228,-4.8303,-4.8218,-4.8253,-4.8255,-4.8254,-4.8452,-4.8493,-4.8628,-4.8385,-4.8388,-4.839,0,-4.8319,-4.833,-4.8421,-4.8403,-4.8414,-4.8454,-4.8465,-4.8489,-4.8485,-4.8467,-4.8475,-4.8428,-4.8476,-4.8399,-4.8464,-4.8407,-4.842,-4.8411,-4.8415,-4.8414,-4.8329,-4.8455,-4.8671,-4.8691,-4.8418,-4.8416,-4.8414,0,-4.8469,-4.8507,-4.8566,-4.8569,-4.8549,-4.8578,-4.8571,-4.8563,-4.8575,-4.8586,-4.8593,-4.861,-4.8618,-4.8632,-4.8592,-4.854,-4.8662,-4.8582,-4.8648,-4.8649,-4.8675,-4.8673,-4.8893,-4.8687,-4.8687,-4.8686,-4.8686,0,-4.8632,-4.869,-4.8633,-4.867,-4.8734,-4.8683,-4.8747,-4.8733,-4.8726,-4.8759,-4.8699,-4.8731,-4.8676,-4.8703,-4.8672,-4.8731,-4.8735,-4.8722,-4.8713,-4.8726,-4.8728,-4.8731,-4.872,-4.8692,-4.869,-4.8689,-4.8688,0,-4.8808,-4.8773,-4.8833,-4.881,-4.8806,-4.8854,-4.8834,-4.8867,-4.8844,-4.8886,-4.8893,-4.8856,-4.8885,-4.8847,-4.8872,-4.8851,-4.8931,-4.8908,-4.8932,-4.8924,-4.8992,-4.8986,-4.922,-4.9248,-4.9027,-4.9029,-4.9031,0,-4.8913,-4.8956,-4.8939,-4.8956,-4.8953,-4.8983,-4.8995,-4.8948,-4.8964,-4.8963,-4.8997,-4.9021,-4.9036,-4.9086,-4.9062,-4.9081,-4.9057,-4.9139,-4.906,-4.9072,-4.9057,-4.9054,-4.9057,-4.9154,-4.9156,-4.9159,-4.916,0,-4.9102,-4.9083,-4.9104,-4.912,-4.9137,-4.9147,-4.9152,-4.917,-4.912,-4.9142,-4.9171,-4.9183,-4.921,-4.9234,-4.9247,-4.924,-4.9192,-4.9186,-4.9202,-4.9215,-4.9226,-4.9219,-4.8974,-4.918,-4.9178,-4.9177,-4.9175,-4.9175,-4.9245,-4.928,-4.9274,-4.9299,-4.9299,-4.9306,-4.9336,-4.9317,-4.934,-4.9357,-4.9328,-4.9365,-4.9361,-4.9373,-4.9372,-4.94,-4.9365,-4.9389,-4.9394,-4.94,-4.941,-4.9224,-4.9403,-4.9402,-4.9402,-4.9401,-4.9401,0,-4.943,-4.9423,-4.9447,-4.9457,-4.9477,-4.9432,-4.9436,-4.9456,-4.9489,-4.9489,-4.9507,-4.954,-4.9564,-4.9543,-4.9563,-4.959,-4.9568,-4.9596,-4.9592,-4.9592,-4.9441,-4.9424,-4.9613,-4.9613,-4.9613,-4.9613,-4.9613,-4.9613,-4.9528,-4.9585,-4.9566,-4.9623,-4.9615,-4.965,-4.9657,-4.9663,-4.9663,-4.9703,-4.9723,-4.9709,-4.9701,-4.972,-4.974,-4.9734,-4.9743,-4.9779,-4.9764,-4.9623,-4.9602,-4.9582,-4.9566,-4.9782,-4.9782,-4.9912,-4.9913,-4.9914]},{"header":{"parameterUnit":"m.s-1","parameterCategory":1,"la1":30.2991,"la2":30.254,"lo1":-89.0895,"lo2":-89.0444,"dy":0.0017,"dx":0.0017,"nx":28,"ny":28,"refTime":"2025-04-23T03:00:00:Z","depth":0,"parameterNumber":3,"parameterNumberName":"V-component_of_WINDS"},"data":[0,0,0,0,0,0,0,0,0,0,0,0,0,0,0,0,0,0,0,0,0,0,0,0,0,0,0,0,0,0,0,0,0,0,0,0,0,0,0,0,0,0,0,0,0,0,0,0,0,0,0,0,0,0,0,0,0,0,3.4062,3.4063,0,3.4082,3.4082,3.4083,3.4069,3.4068,3.4067,3.4067,3.4085,3.4086,3.4087,0,0,0,0,0,0,0,0,0,0,0,0,0,3.401,3.4011,3.4062,3.4063,3.4063,3.4082,3.4082,3.4083,3.4069,3.4068,3.4067,3.4067,3.4085,3.4086,3.4087,0,0,0,0,0,0,0,0,0,0,0,0,0,3.4032,3.4012,3.4062,3.4058,3.4058,3.4082,3.4082,3.4083,3.4069,3.4068,3.4067,3.4066,3.4084,3.4086,3.4087,3.4116,0,0,3.4092,3.4093,0,0,0,0,0,0,0,0,3.4031,3.4034,3.4059,3.4059,3.4058,3.4072,3.4071,3.4094,3.4069,3.4065,3.4067,3.4066,3.4081,3.4083,3.4089,3.4117,3.4118,3.4092,3.4093,3.4094,3.4095,0,0,0,0,0,0,0,3.4029,3.4033,3.407,3.4059,3.4059,3.4055,3.4057,3.4075,3.4078,3.4065,3.4064,3.4067,3.4081,3.4087,3.4089,3.4118,3.4092,3.4094,3.4095,3.4095,3.417,3.4171,0,0,0,0,0,0,3.4028,3.4032,3.4069,3.4071,3.4042,3.4057,3.4059,3.4069,3.4078,3.4078,3.4068,3.4066,3.4085,3.4087,3.409,3.4124,3.4094,3.4096,3.4097,3.4169,3.417,3.4172,0,0,0,0,0,0,3.4027,3.4032,3.4069,3.4051,3.4055,3.4058,3.4069,3.4069,3.4076,3.408,3.408,3.4073,3.4084,3.4088,3.411,3.4124,3.4096,3.4098,3.4168,3.417,3.4171,3.4192,0,0,0,0,0,0,3.4026,3.4032,3.4043,3.4051,3.4056,3.4089,3.407,3.407,3.4079,3.4077,3.4085,3.4086,3.4084,3.4107,3.4111,3.4126,3.4099,3.4167,3.4169,3.417,3.419,3.4194,3.4197,0,0,0,0,0,3.4024,3.4047,3.4043,3.4048,3.4071,3.409,3.4092,3.4091,3.408,3.4091,3.4094,3.4085,3.4122,3.411,3.4114,3.4129,3.4166,3.4168,3.417,3.4188,3.4193,3.4197,0,0,0,0,0,0,3.4039,3.4048,3.4044,3.4071,3.408,3.4087,3.4101,3.4096,3.4107,3.4105,3.4101,3.4103,3.4127,3.413,3.4116,3.4157,3.4142,3.4145,3.4154,3.4159,3.4163,3.4161,3.41,0,0,0,0,0,3.4046,3.4061,3.4068,3.4091,3.4096,3.4098,3.4106,3.4104,3.4113,3.4116,3.412,3.4128,3.4142,3.4151,3.4163,3.419,3.4192,3.4203,3.4207,3.421,3.4212,3.4227,3.4232,3.4179,3.4179,3.4179,0,0,3.4059,3.4066,3.4076,3.4094,3.4101,3.4117,3.4101,3.4118,3.4129,3.4118,3.414,3.4143,3.4152,3.4177,3.4188,3.4181,3.4228,3.4213,3.4215,3.4216,3.423,3.4235,3.4239,3.4181,3.418,3.418,0,0,3.4092,3.4099,3.4119,3.4126,3.4137,3.4138,3.4143,3.4152,3.4154,3.4175,3.4168,3.4181,3.4204,3.421,3.4217,3.4253,3.4246,3.4257,3.4276,3.4291,3.4295,3.4299,3.4311,3.4316,3.426,3.426,3.426,0,3.4107,3.4131,3.413,3.4148,3.4156,3.4148,3.4168,3.4175,3.4188,3.4194,3.4185,3.4215,3.422,3.4246,3.4255,3.4261,3.4266,3.4256,3.4295,3.4298,3.4302,3.4314,3.4318,3.4261,3.4261,3.4261,3.4261,0,3.4149,3.4166,3.4181,3.4195,3.4205,3.4224,3.4225,3.4235,3.4232,3.4234,3.4256,3.4263,3.4276,3.4283,3.428,3.4309,3.4304,3.4295,3.428,3.4308,3.4319,3.4324,3.4263,3.4263,3.4262,3.4262,0,0,3.4191,3.4206,3.4211,3.4218,3.4229,3.4242,3.426,3.4274,3.4283,3.4293,3.4308,3.4328,3.432,3.4327,3.4325,3.4338,3.4366,3.4328,3.4328,3.4334,3.4398,3.4404,3.4409,3.4362,3.4362,3.4363,3.4397,0,3.4225,3.4258,3.4257,3.4287,3.4303,3.4295,3.4311,3.432,3.4322,3.4335,3.4337,3.4352,3.434,3.4345,3.4357,3.436,3.4378,3.4357,3.4375,3.4375,3.4372,3.4415,3.4422,3.4454,3.4401,3.4402,3.4403,0,3.4268,3.428,3.4312,3.4322,3.4328,3.4342,3.4355,3.4368,3.4377,3.4378,3.4387,3.4383,3.4401,3.4386,3.441,3.4396,3.4403,3.4406,3.4407,3.4408,3.439,3.4417,3.4464,3.4468,3.441,3.4409,3.4409,0,3.4295,3.432,3.4342,3.4348,3.4359,3.437,3.4375,3.4383,3.4392,3.4403,3.4409,3.4422,3.4429,3.4439,3.4438,3.4427,3.4463,3.4448,3.4464,3.4464,3.4471,3.4471,3.4519,3.4477,3.4477,3.4477,3.4477,0,3.4332,3.4352,3.4354,3.4368,3.439,3.4389,3.4411,3.4415,3.4422,3.4436,3.4431,3.4444,3.4442,3.4455,3.4455,3.4475,3.4479,3.4479,3.4479,3.448,3.448,3.4484,3.4482,3.4478,3.4478,3.4477,3.4477,0,3.4366,3.4369,3.4393,3.4402,3.4405,3.4421,3.4428,3.4441,3.4443,3.4461,3.4465,3.4468,3.4483,3.4484,3.4501,3.4501,3.4526,3.4523,3.4523,3.4522,3.4538,3.4536,3.4591,3.4598,3.4551,3.4551,3.4552,0,3.4389,3.4405,3.4416,3.4425,3.4431,3.4446,3.4456,3.4455,3.4465,3.4477,3.4488,3.4503,3.4514,3.4539,3.4542,3.4555,3.4552,3.4571,3.4554,3.4555,3.4552,3.4551,3.4553,3.4574,3.4574,3.4575,3.4575,0,3.443,3.4431,3.4445,3.4459,3.4471,3.4482,3.4492,3.45,3.45,3.4511,3.4527,3.4536,3.4554,3.4569,3.4581,3.4586,3.458,3.458,3.4584,3.4585,3.4584,3.4585,3.4531,3.4579,3.4578,3.4578,3.4578,3.4578,3.446,3.4473,3.4483,3.4499,3.4507,3.4516,3.4529,3.4533,3.4547,3.4562,3.456,3.4578,3.4587,3.4603,3.4609,3.4622,3.4616,3.4622,3.4624,3.4625,3.4627,3.4583,3.4624,3.4624,3.4624,3.4624,3.4624,0,3.45,3.4507,3.4521,3.4536,3.4548,3.4543,3.4554,3.4564,3.458,3.4589,3.4601,3.4619,3.4633,3.4638,3.4651,3.4661,3.4659,3.4664,3.4663,3.4665,3.4632,3.4627,3.4666,3.4666,3.4666,3.4666,3.4666,3.4666,3.4523,3.4545,3.4547,3.4573,3.4579,3.4597,3.4603,3.4612,3.4619,3.464,3.4652,3.4655,3.4663,3.4677,3.4689,3.469,3.4695,3.4702,3.4702,3.4671,3.4667,3.4663,3.4658,3.4703,3.4703,3.4734,3.4734,3.4734]}]]